Regional Weather Roundup
Issued by NWS Nashville, TN

Current Version | Previous Version | Text Only | Print | Product List | Glossary On
Versions: 1 2 3 4 5 6 7 8 9 10 11 12 13 14 15 16 17 18 19 20 21 22 23 24 25 26 27 28 29 30 31 32 33 34 35 36 37 38 39 40 41 42 43 44 45 46 47 48 49 50
000
ASUS44 KOHX 061515
RWROHX
MIDDLE TENNESSEE HOURLY WEATHER ROUNDUP
NATIONAL WEATHER SERVICE NASHVILLE TN
1000 AM CDT WED MAY 06 2015

NOTE: "FAIR" INDICATES FEW OR NO CLOUDS BELOW 12,000 FEET WITH
NO SIGNIFICANT WEATHER AND/OR OBSTRUCTIONS TO VISIBILITY.

* THESE REPORTS ARE NOT UNDER NWS QUALITY CONTROL AND MAY NOT
  REPORT WEATHER SUCH AS PRECIPITATION AND FOG.


TNZ005>011-023>034-057-059-062>066-078-080-061600
...NORTHERN MIDDLE TENNESSEE...

CITY           SKY/WX    TMP DP  RH WIND       PRES   REMARKS
CLARKSVILLE    MOSUNNY   75  57  53 S7        30.20F
CROSSVILLE     SUNNY     74  50  42 W6        30.26F
NASHVILLE      MOSUNNY   78  56  46 VRB6      30.22S
PORTLAND       MOSUNNY   72  59  64 CALM      30.21S
ROCKWOOD       SUNNY     75  55  49 SW3       30.25F
SMYRNA         SUNNY     77  58  51 S7        30.22F
SPARTA         MOSUNNY   79  57  47 SW3       30.23S
$$
TNZ056-058-060-061-075>077-079-093>097-061600
...SOUTHERN MIDDLE TENNESSEE...

CITY           SKY/WX    TMP DP  RH WIND       PRES   REMARKS
COLUMBIA       MOSUNNY   79  57  47 S3        30.20F
LEWISBURG      SUNNY     78  52  40 S5        30.21S
MCMINNVILLE    PTSUNNY   77  57  50 CALM      30.23S
SHELBYVILLE    PTSUNNY   79  59  50 VRB3      30.23F
TULLAHOMA      SUNNY     75  52  43 CALM      30.24S
WINCHESTER     SUNNY     77  54  44 VRB3      30.23S
$$


...KEY TO REMARKS...
VSB - VISIBILITY IN MILES
WCI - WIND CHILL INDEX
HX  - HEAT INDEX



USA.gov is the U.S. government's official web portal to all federal, state and local government web resources and services.